Skip Page Navigation
NASA JPL Caltech
NASA Logo - Jet Propulsion Laboratory + View the NASA Portal
+ Near-Earth Object (NEO) Program
Search JPL
JPL Home Earth Solar System Stars & Galaxies Technology
JPL Solar System Dynamics
BODIES ORBITS EPHEMERIDES TOOLS PHYSICAL DATA DISCOVERY FAQ SITE MAP
JPL Small-Body Database Browser
Search: [ help ]  
(2002 EL6)
Classification: Apollo [NEO, PHA]          SPK-ID: 3117425
Ephemeris | Orbit Diagram | Orbital Elements | Physical Parameters | Close-Approach Data ]

[ hide orbit diagram ]
Orbit Diagram
Note: Make sure you have Java enabled on your browser to see the applet. This applet is provided as a 3D orbit visualization tool. The applet was implemented using 2-body methods, and hence should not be used for determining accurate long-term trajectories (over several years or decades) or planetary encounter circumstances. For accurate long-term ephemerides, please instead use our Horizons system.
Orbit Viewer

Additional Notes: the orbits shown in the applet are color coded. The planets are white lines, and the asteroid/comet is a blue line. The bright white line indicates the portion of the orbit that is above the ecliptic plane, and the darker portion is below the ecliptic plane. Likewise for the asteroid/comet orbit, the light blue indicates the portion above the ecliptic plane, and the dark blue the portion below the ecliptic plane.

Orbit Viewer applet originally written and kindly provided by Osamu Ajiki (AstroArts), and further modified by Ron Baalke (JPL).


Orbital Elements at Epoch 2456400.5 (2013-Apr-18.0) TDB
Reference: JPL 76 (heliocentric ecliptic J2000)
 Element Value Uncertainty (1-sigma)   Units 
e .5791349722163286 3.5452e-08  
a 2.298980522782005 7.69e-09 AU
q .9675605015947677 8.0819e-08 AU
i 9.539606289872546 7.7368e-06 deg
node 85.0178881024714 5.1878e-05 deg
peri 186.4220159287399 5.6044e-05 deg
M 40.75845654223516 6.7147e-06 deg
tp 2456256.349353812882
(2012-Nov-24.84935381)
2.3122e-05 JED
period 1273.213880746145
3.49
6.3883e-06
1.749e-08
d
yr
n .2827490380398839 1.4187e-09 deg/d
Q 3.630400543969242 1.2144e-08 AU
  Orbit Determination Parameters
   # obs. used (total)      405  
   data-arc span      3633 days (9.95 yr)  
   first obs. used      2002-03-10  
   last obs. used      2012-02-19  
   planetary ephem.      DE405  
   SB-pert. ephem.      SB405-CPV-2  
   condition code      0  
   fit RMS      .50797  
   data source      ORB  
   producer      Otto Matic  
   solution date      2012-Feb-19 23:50:08  

Additional Information
 Earth MOID = .0425045 AU 
 T_jup = 3.332 
[ show covariance matrix ]

Ephemeris | Orbit Diagram | Orbital Elements | Physical Parameters | Close-Approach Data ]

Physical Parameter Table
Parameter Symbol Value Units Sigma Reference Notes
absolute magnitude H 17.962 mag .69945 76 autocmod 2.5b

[ show close-approach data ]
Ephemeris | Orbit Diagram | Orbital Elements | Physical Parameters | Close-Approach Data ]
ABOUT SSD CREDITS/AWARDS PRIVACY/COPYRIGHT GLOSSARY LINKS
FirstGov 2013-May-24 00:28 UT
(server date/time)  
NASA Home Page
Site Manager:   Donald K. Yeomans
Webmaster  Alan B. Chamberlin